"2016-03-12 00:00:00",1450011,3.182,76.59,1.224,0.163,19.24,107.04,17.3,18.36,10.65,0,110.8,13.08,18.11,38.6
"2016-03-12 00:00:30",1450012,3.425,77.97,4.068,0.182,19.25,107.0461,17.31,18.34,10.62,0,110.8,13.08,18.13,40.0
"2016-03-12 00:01:00",1450013,3.212,81.6,7.671,0.191,19.25,107.0491,17.32,18.33,10.52,0,110.8,13.09,18.13,43.6
"2016-03-12 19:06:30",1452304,3.46,44.53,7.37,1.508,12.91,104.2653,10.19,11.29,37.28,0,110.6,13.14,10.98,6.5
"2016-03-12 19:07:00",1452305,2.4,36.97,10.04,1.454,12.63,104.2794,10.23,11.27,37.95,0,110.6,13.14,11.02,359.0
"2016-03-12 19:07:30",1452306,0.785,340.4,13.07,0.623,10.88,104.285,10.24,11.16,37.8,0,110.6,13.18,11.03,302.4
"2016-03-12 19:08:00",1452307,1.88,8.24,15.48,0.538,10.42,104.2957,10.27,11.17,36.79,0,110.6,13.18,11.06,330.2
"2016-03-12 19:08:30",1452308,2.249,15.73,7.822,0.35,10.48,104.314,10.32,11.22,36.33,0,110.6,13.19,11.11,337.7
"2016-03-12 19:09:00",1452309,2.095,1.134,3.968,0.226,10.83,104.3269,10.35,11.3,36.68,0,110.6,13.19,11.14,323.1
"2016-03-12 19:09:30",1452310,2.751,8.25,12.57,1.731,13.42,104.3384,10.38,11.41,36.82,0,110.6,13.14,11.17,330.2
"2016-03-12 19:10:00",1452311,1.087,3.683,8.01,0.416,10.87,104.3602,10.44,11.32,36.79,0,110.6,13.18,11.22,325.7
"2016-03-12 19:10:30",1452312,1.69,19.55,8.32,0.447,10.24,104.3688,10.46,11.36,36.75,0,110.6,13.18,11.25,341.5
"2016-03-12 19:11:00",1452313,1.768,17.6,10.28,0.207,10.45,104.3902,10.51,11.39,36.01,0,110.6,13.18,11.30,339.6
"2016-03-12 19:11:30",1452314,1.387,353.4,8.08,0.193,10.54,104.3917,10.52,11.43,34.91,0,110.6,13.18,11.30,315.4
"2016-03-12 19:12:00",1452315,1.5,11.11,8.11,0.285,10.74,104.4139,10.57,11.47,35.01,0,110.6,13.18,11.36,333.1
"2016-03-12 19:12:30",1452316,1.993,1.389,16.83,0.358,10.9,104.4183,10.58,11.5,34.87,0,110.6,13.18,11.37,323.4
"2016-03-12 19:13:00",1452317,2.229,26.33,11.69,0.278,10.9,104.439,10.64,11.53,35.58,0,110.6,13.18,11.43,348.3
"2016-03-12 19:13:30",1452318,2.313,39.85,6.031,0.303,10.97,104.4425,10.65,11.58,35.48,0,110.6,13.18,11.44,1.8
"2016-03-12 19:14:00",1452319,3.35,36.47,10.97,1.595,12.69,104.4568,10.68,11.73,36.13,0,110.6,13.14,11.47,358.5
"2016-03-12 19:14:30",1452320,4.523,54.91,9.19,1.441,14.39,104.4749,10.73,11.81,36.4,0,110.6,13.13,11.52,16.9
"2016-03-12 19:15:00",1452321,3.172,44.78,6.454,1.319,12.51,104.4795,10.74,11.81,36.24,0,110.6,13.13,11.53,6.8
"2016-03-12 19:15:30",1452322,2.701,36.15,8.44,1.103,12.11,104.498,10.79,11.79,36.17,0,110.6,13.13,11.58,358.1
"2016-03-12 19:16:00",1452323,1.296,29.4,7.576,0.262,11.1,104.5002,10.79,11.75,36.04,0,110.7,13.17,11.58,351.4
"2016-03-12 19:16:30",1452324,2.343,21.88,28.39,1.584,14.13,104.5106,10.82,12,36.21,0,110.7,13.13,11.61,343.9
"2016-03-12 19:17:00",1452325,1.853,26.46,12.65,0.804,11.14,104.5291,10.87,11.85,36.19,0,110.7,13.13,11.66,348.5
"2016-03-12 19:17:30",1452326,1.176,37,9.07,0.301,10.56,104.5322,10.88,11.85,35.9,0,110.7,13.17,11.67,359.0
"2016-03-12 19:18:00",1452327,0.461,17.1,27.4,0.288,10.74,104.5316,10.87,11.88,36.11,0,110.7,13.17,11.66,339.1
"2016-03-12 19:18:30",1452328,0.959,357.2,18.06,0.475,10.9,104.5327,10.88,11.89,35.92,0,110.7,13.16,11.67,319.2
"2016-03-12 19:19:00",1452329,1.941,352.2,4.017,0.326,10.99,104.5536,10.93,11.88,34.2,0,110.7,13.17,11.72,314.2
"2016-03-12 19:19:30",1452330,2.065,6.647,8.61,0.346,11.18,104.5654,10.96,11.91,33.37,0,110.7,13.16,11.75,328.6
"2016-03-12 19:20:00",1452331,1.949,356.2,5.354,0.259,11.5,104.5657,10.96,11.93,32.76,0,110.7,13.17,11.75,318.2
"2016-03-12 19:20:30",1452332,1.951,359.8,12.47,0.518,11.67,104.5894,11.02,11.95,33.1,0,110.7,13.17,11.81,321.8
"2016-03-12 19:21:00",1452333,1.157,6.098,15.4,0.793,11.99,104.5993,11.05,11.99,33.45,0,110.7,13.17,11.84,328.1
"2016-03-12 19:21:30",1452334,2.229,25.25,15.64,1.603,12.81,104.5993,11.05,12.04,34.44,0,110.7,13.12,11.84,347.2
"2016-03-12 19:22:00",1452335,1.918,25.36,11.76,1.362,14,104.5993,11.05,12.21,35.22,0,110.7,13.12,11.84,347.4
"2016-03-12 19:22:30",1452336,2.006,24.63,20.61,1.391,13.07,104.5736,10.98,12.06,34.81,0,110.7,13.12,11.77,346.6
"2016-03-12 19:23:00",1452337,2.014,10.89,11.61,0.655,11.72,104.5829,11.01,12.02,34.68,0,110.7,13.12,11.80,332.9
"2016-03-12 19:23:30",1452338,3.54,15.4,6.401,1.373,14.07,104.599,11.05,12.22,35.07,0,110.7,13.12,11.84,337.4
"2016-03-12 19:24:00",1452339,3.411,25.64,26.59,1.584,14.12,104.5993,11.05,12.17,34.68,0,110.7,13.12,11.84,347.6
"2016-03-12 19:24:30",1452340,2.734,29.67,13.94,1.345,12.34,104.5998,11.05,12.14,34.6,0,110.7,13.12,11.84,351.7
"2016-03-12 19:25:00",1452341,2.15,22,7.822,0.363,10.69,104.6108,11.08,12.05,34.2,0,110.7,13.17,11.87,344.0
"2016-03-12 19:25:30",1452342,1.8,36.35,11.73,0.515,10.79,104.6238,11.11,12.09,34.19,0,110.7,13.17,11.90,358.4
"2016-03-12 19:26:00",1452343,2.419,41.35,5.839,0.297,10.96,104.6325,11.13,12.09,34.21,0,110.7,13.17,11.92,3.3
"2016-03-12 19:26:30",1452344,2.133,32.97,7.105,0.364,11.38,104.6331,11.13,12.11,34.39,0,110.7,13.17,11.92,355.0
"2016-03-12 19:27:00",1452345,1.961,27.77,4.956,0.22,11.62,104.6331,11.13,12.12,34.64,0,110.7,13.17,11.92,349.8
"2016-03-12 19:27:30",1452346,2.26,28.15,8.35,0.38,11.83,104.6328,11.13,12.13,34.73,0,110.7,13.17,11.92,350.1
"2016-03-12 19:28:00",1452347,2.088,25.03,3.162,0.372,11.9,104.6322,11.13,12.13,34.51,0,110.7,13.17,11.92,347.0
"2016-03-12 19:28:30",1452348,2.093,24.95,10.11,0.956,13.57,104.6319,11.13,12.24,34.53,0,110.7,13.12,11.92,347.0
"2016-03-12 19:29:00",1452349,1.284,22.51,9.82,1.244,13.86,104.608,11.07,12.24,35.15,0,110.7,13.12,11.86,344.5
"2016-03-12 19:29:30",1452350,0.757,3.769,15.69,0.313,12.15,104.6012,11.05,12.14,34.93,0,110.7,13.17,11.84,325.8
"2016-03-12 19:30:00",1452351,0.29,0.017,42.67,0.362,11.82,104.6074,11.07,12.08,34.79,0,110.7,13.17,11.86,322.0
"2016-03-12 19:30:30",1452352,0.716,15.25,16.62,0.349,11.53,104.6164,11.09,12.08,34.71,0,110.7,13.17,11.88,337.2
"2016-03-12 19:31:00",1452353,0.838,20.56,9.24,0.352,11.48,104.6294,11.12,12.08,34.68,0,110.7,13.17,11.91,342.6
"2016-03-12 19:31:30",1452354,0.58,14.58,17.18,0.388,11.74,104.6322,11.13,12.09,34.34,0,110.7,13.17,11.92,336.6
"2016-03-12 19:32:00",1452355,0.788,22.98,9.83,0.346,11.59,104.6322,11.13,12.1,34.27,0,110.7,13.17,11.92,345.0
"2016-03-12 19:32:30",1452356,1.001,35.37,13.22,0.238,11.47,104.6304,11.13,12.11,34.88,0,110.7,13.17,11.92,357.4
"2016-03-12 19:33:00",1452357,0.337,48.31,25.13,0.27,11.77,104.602,11.05,12.11,35.32,0,110.7,13.17,11.84,10.3
"2016-03-12 19:33:30",1452358,0.288,12.22,17,0.235,11.62,104.5886,11.02,12.09,35.15,0,110.7,13.16,11.81,334.2
"2016-03-12 19:34:00",1452359,0.597,26.32,6.823,0.194,11.45,104.6049,11.06,12.07,34.83,0,110.7,13.16,11.85,348.3
"2016-03-12 19:34:30",1452360,0.685,9.55,15.29,0.165,11.64,104.6095,11.07,12.09,34.93,0,110.7,13.16,11.86,331.5
"2016-03-12 19:35:00",1452361,0.683,8.05,18.41,0.35,11.57,104.6305,11.13,12.1,34.85,0,110.7,13.16,11.92,330.0
"2016-03-12 19:35:30",1452362,0.986,29.73,9.9,0.254,11.81,104.6421,11.16,12.13,34.83,0,110.7,13.16,11.95,351.7
"2016-03-12 19:36:00",1452363,0.703,47.81,12.89,0.35,11.85,104.6616,11.21,12.17,34.78,0,110.7,13.16,12.00,9.8
"2016-03-12 19:36:30",1452364,0.812,55.55,51.6,0.412,12.04,104.6674,11.22,12.2,34.62,0,110.7,13.16,12.01,17.5
"2016-03-12 19:37:00",1452365,0.465,45.23,30.58,0.326,12.31,104.6662,11.22,12.23,34.84,0,110.7,13.16,12.01,7.2
"2016-03-12 19:37:30",1452366,0.17,42.52,34.73,0.368,12.44,104.6377,11.15,12.23,34.97,0,110.7,13.16,11.94,4.5
"2016-03-12 19:38:00",1452367,0.593,16.53,18.89,0.439,12.5,104.6315,11.13,12.21,34.92,0,110.7,13.16,11.92,338.5
"2016-03-12 19:38:30",1452368,0.38,9.66,15.67,0.429,12.61,104.6307,11.13,12.18,34.34,0,110.7,13.16,11.92,331.7
"2016-03-12 19:39:00",1452369,0.455,32.83,17.27,0.339,12.07,104.6315,11.13,12.15,33.97,0,110.7,13.16,11.92,354.8
"2016-03-12 19:39:30",1452370,0.559,26.55,28.37,0.282,12.39,104.6363,11.14,12.15,34.12,0,110.7,13.16,11.93,348.5
"2016-03-12 19:40:00",1452371,0.94,19.88,12.24,0.617,12.43,104.6605,11.2,12.17,34.6,0,110.7,13.16,11.99,341.9
"2016-03-12 19:40:30",1452372,0.451,8.57,16.88,0.458,12.88,104.665,11.22,12.17,35.08,0,110.7,13.16,12.01,330.6
"2016-03-12 19:41:00",1452373,0.153,45.99,44.5,0.404,12.32,104.6637,11.21,12.17,34.93,0,110.7,13.16,12.00,8.0
"2016-03-12 19:41:30",1452374,0.221,38.19,24.47,0.277,12.12,104.6824,11.26,12.2,34.82,0,110.7,13.16,12.05,0.2
"2016-03-12 19:42:00",1452375,1.14,345.6,15.77,0.519,12.45,104.6804,11.25,12.22,34.94,0,110.7,13.16,12.05,307.6
"2016-03-12 19:42:30",1452376,1.111,7.222,22.23,0.584,12.51,104.6453,11.16,12.2,34.67,0,110.7,13.16,11.96,329.2
"2016-03-12 19:43:00",1452377,1.263,14.64,13.75,0.416,12.6,104.6346,11.14,12.17,34.16,0,110.7,13.16,11.93,336.6
"2016-03-12 19:43:30",1452378,1.495,355.6,10.75,0.589,12.59,104.6393,11.15,12.17,34.3,0,110.7,13.16,11.94,317.6
"2016-03-12 19:44:00",1452379,1.733,331.2,11.56,0.57,12.36,104.6665,11.22,12.19,34.58,0,110.8,13.16,12.01,293.2
"2016-03-12 19:44:30",1452380,1.317,302.2,14.24,0.28,12.29,104.6748,11.24,12.22,34.68,0,110.8,13.16,12.03,264.2
"2016-03-12 19:45:00",1452381,1.895,299.8,13.77,0.245,12.25,104.6664,11.22,12.23,35.01,0,110.8,13.16,12.01,261.8
"2016-03-12 19:45:30",1452382,1.622,311,19.08,0.345,12.61,104.6443,11.16,12.22,35.24,0,110.8,13.16,11.95,273.0
"2016-03-12 19:46:00",1452383,1.683,305.5,7.776,0.295,12.34,104.6299,11.13,12.19,35.16,0,110.8,13.16,11.92,267.5
"2016-03-12 19:46:30",1452384,1.753,287.4,8.88,0.363,12.35,104.6299,11.13,12.16,34.98,0,110.8,13.15,11.92,249.4
"2016-03-12 19:47:00",1452385,1.602,315.6,12.52,0.287,12.4,104.6283,11.12,12.14,34.93,0,110.8,13.15,11.91,277.6
"2016-03-12 19:47:30",1452386,1.64,328.7,9.49,0.455,12.35,104.6274,11.12,12.13,34.9,0,110.8,13.15,11.91,290.7
"2016-03-12 19:48:00",1452387,1.102,312.5,20.85,0.4,12.44,104.6375,11.14,12.16,34.96,0,110.8,13.15,11.94,274.5
"2016-03-12 19:48:30",1452388,1.537,305.9,7.913,0.294,12.31,104.6623,11.21,12.17,34.94,0,110.8,13.15,12.00,267.9
"2016-03-12 19:49:00",1452389,1.094,326.3,16.89,0.444,12.35,104.6767,11.25,12.19,34.67,0,110.8,13.15,12.04,288.3
"2016-03-12 19:49:30",1452390,0.431,358.4,16.7,0.255,12.85,104.6978,11.3,12.22,34.44,0,110.8,13.15,12.09,320.4
"2016-03-12 19:50:00",1452391,0.364,14.02,24.85,0.371,12.63,104.7112,11.33,12.27,34.34,0,110.8,13.15,12.12,336.0
"2016-03-12 19:50:30",1452392,1.106,43.05,17.2,0.578,12.2,104.7003,11.31,12.28,34.32,0,110.8,13.14,12.10,5.0
"2016-03-12 19:51:00",1452393,1.281,100.3,15.39,0.243,12.08,104.6717,11.23,12.27,34.06,0,110.8,13.14,12.02,62.3
"2016-03-12 19:51:30",1452394,0.751,82,35.03,0.344,12.31,104.672,11.23,12.26,34.28,0,110.8,13.14,12.02,44.0
"2016-03-12 19:52:00",1452395,1.049,30.34,12.43,0.178,12.26,104.6873,11.27,12.26,34.4,0,110.8,13.14,12.06,352.3
"2016-03-12 19:52:30",1452396,0.828,33.41,36.88,0.471,12.32,104.7048,11.32,12.28,34.42,0,110.8,13.14,12.11,355.4
"2016-03-12 19:53:00",1452397,0.67,340.8,34.84,0.329,12.46,104.7298,11.38,12.32,33.58,0,110.8,13.13,12.17,302.8
"2016-03-12 19:53:30",1452398,0.552,327.6,41.16,0.427,12.46,104.7596,11.46,12.36,33.61,0,110.8,13.13,12.25,289.6
"2016-03-12 19:54:00",1452399,0.602,319.7,32.4,0.396,12.5,104.7852,11.52,12.41,33.08,0,110.8,13.13,12.31,281.7
"2016-03-12 19:54:30",1452400,0.674,300.8,35.27,0.173,12.53,104.8088,11.58,12.45,32.71,0,110.8,13.13,12.38,262.8
"2016-03-12 19:55:00",1452401,0.456,5.391,18.16,0.215,12.71,104.8328,11.64,12.53,32.58,0,110.8,13.13,12.44,327.4
"2016-03-12 19:55:30",1452402,1.08,27.3,6.931,0.115,12.29,104.8606,11.72,12.56,32.1,0,110.8,13.13,12.51,349.3
"2016-03-12 19:56:00",1452403,1.153,33.04,8.41,0.196,12.35,104.8798,11.76,12.62,31.27,0,110.8,13.14,12.56,355.0
"2016-03-12 19:56:30",1452404,0.547,18.53,10.87,0.11,12.4,104.9068,11.83,12.67,30.54,0,110.8,13.14,12.63,340.5
"2016-03-12 19:57:00",1452405,0.993,43.46,7.584,0.361,12.34,104.9319,11.9,12.73,30.72,0,110.8,13.14,12.69,5.5
"2016-03-12 19:57:30",1452406,1.524,16.51,10.91,0.227,12.52,104.9595,11.97,12.78,29.96,0,110.8,13.14,12.76,338.5
"2016-03-12 19:58:00",1452407,1.44,358.9,5.055,0.21,12.68,104.9851,12.03,12.85,30.04,0,110.8,13.14,12.83,320.9
"2016-03-12 19:58:30",1452408,1.863,12.41,4.214,0.364,12.54,105.0034,12.08,12.9,30.18,0,110.8,13.14,12.88,334.4
"2016-03-12 19:59:00",1452409,3.003,27.06,6.811,0.268,12.43,105.0315,12.15,12.95,31.09,0,110.8,13.14,12.95,349.1
"2016-03-12 19:59:30",1452410,2.093,21.16,11.61,0.69,12.58,105.0494,12.2,13.02,31.39,0,110.9,13.14,12.99,343.2
"2016-03-12 20:00:00",1452411,1.612,49.28,4.435,0.285,12.74,105.0666,12.24,13.08,31.39,0,110.9,13.14,13.04,11.3
"2016-03-12 20:00:30",1452412,0.56,82.6,37.72,0.38,12.76,105.0912,12.31,13.13,31.34,0,110.9,13.14,13.10,44.6
"2016-03-12 20:01:00",1452413,0.214,86.3,43.78,0.244,12.83,105.0983,12.32,13.17,31.12,0,110.9,13.14,13.12,48.3
"2016-03-12 20:01:30",1452414,0.451,53.68,6.8,0.333,12.64,105.1093,12.35,13.21,31.12,0,110.9,13.14,13.15,15.7
"2016-03-12 20:02:00",1452415,1.593,44.1,4.77,0.304,12.67,105.1145,12.37,13.26,31.04,0,110.9,13.13,13.16,6.1
"2016-03-12 20:02:30",1452416,2.421,43.06,2.218,0.32,12.71,105.1171,12.37,13.29,30.95,0,110.9,13.13,13.17,5.1
"2016-03-12 20:03:00",1452417,2.611,48.33,7.144,0.53,13.01,105.1348,12.42,13.32,30.67,0,110.9,13.13,13.21,10.3
"2016-03-12 20:03:30",1452418,2.177,45.34,2.735,0.305,13,105.1458,12.45,13.37,30.33,0,110.9,13.13,13.24,7.3
"2016-03-12 20:04:00",1452419,2.378,39.95,3.073,0.183,13,105.1649,12.49,13.39,29.8,0,110.9,13.13,13.29,2.0
"2016-03-12 20:04:30",1452420,1.806,37.44,4.196,0.244,13.2,105.1764,12.52,13.44,29.38,0,110.9,13.13,13.32,359.4
"2016-03-12 20:05:00",1452421,2.403,35.44,7.854,0.346,13.26,105.1828,12.54,13.47,29.22,0,110.9,13.13,13.34,357.4
"2016-03-12 20:05:30",1452422,2.804,36.67,5.365,0.381,13.15,105.2042,12.6,13.5,28.99,0,110.9,13.13,13.39,358.7
"2016-03-12 20:06:00",1452423,2.251,28.3,2.889,0.311,13.03,105.2089,12.61,13.55,29.87,0,110.9,13.13,13.40,350.3
"2016-03-12 20:06:30",1452424,2.234,33.35,6.473,0.346,13.11,105.2295,12.66,13.57,30.48,0,110.9,13.13,13.46,355.4
"2016-03-12 20:07:00",1452425,1.963,37.78,4.442,0.298,13.08,105.2392,12.68,13.61,30.16,0,110.9,13.13,13.48,359.8
"2016-03-12 20:07:30",1452426,1.549,17.66,8.91,0.286,13.06,105.247,12.7,13.64,30.26,0,110.9,13.13,13.50,339.7
"2016-03-12 20:08:00",1452427,1.764,10.77,10.19,0.413,13.37,105.2689,12.76,13.67,30.17,0,110.9,13.12,13.56,332.8
"2016-03-12 20:08:30",1452428,1.403,15.76,18.08,0.449,13.72,105.2714,12.77,13.72,29.51,0,110.9,13.12,13.56,337.8
"2016-03-12 20:09:00",1452429,2.069,19.71,7.757,0.467,13.43,105.2857,12.8,13.76,28.77,0,110.9,13.12,13.60,341.7
"2016-03-12 20:09:30",1452430,1.669,50.02,9.91,0.366,13.38,105.3026,12.85,13.77,29.28,0,110.9,13.12,13.64,12.0
"2016-03-12 20:10:00",1452431,0.957,47.47,11.45,0.269,13.48,105.3028,12.85,13.81,29.32,0,110.9,13.11,13.64,9.5
"2016-03-12 20:10:30",1452432,0.64,39.22,21.95,0.332,13.56,105.2986,12.84,13.82,29.47,0,110.9,13.12,13.63,1.2
"2016-03-12 20:11:00",1452433,1.759,67.21,22.45,0.527,13.42,105.2727,12.77,13.83,29.71,0,110.9,13.12,13.57,29.2
"2016-03-12 20:11:30",1452434,0.572,50.7,56.36,0.42,13.6,105.2859,12.8,13.82,29.79,0,110.9,13.12,13.60,12.7
"2016-03-12 20:12:00",1452435,1.584,34.82,9.17,0.366,13.42,105.2944,12.83,13.82,29.77,0,110.9,13.11,13.62,356.8
"2016-03-12 20:12:30",1452436,1.968,30.83,7.051,0.372,13.65,105.3023,12.85,13.83,29.29,0,110.9,13.12,13.64,352.8
"2016-03-12 20:13:00",1452437,2.292,32.82,6.848,0.532,13.54,105.3079,12.86,13.84,28.99,0,110.9,13.12,13.66,354.8
"2016-03-12 20:13:30",1452438,2.252,36.6,17.09,0.825,13.65,105.329,12.91,13.86,29.26,0,110.9,13.12,13.71,358.6
"2016-03-12 20:14:00",1452439,2.213,48.51,6.124,0.359,13.49,105.336,12.93,13.89,28.67,0,110.9,13.12,13.73,10.5
"2016-03-12 20:14:30",1452440,1.96,37.53,7.683,0.268,13.7,105.3473,12.96,13.92,28.6,0,110.9,13.12,13.76,359.5
"2016-03-12 20:15:00",1452441,2.956,45.97,6.355,0.615,13.79,105.3676,13.01,13.95,28.16,0,110.9,13.12,13.81,8.0
"2016-03-12 20:15:30",1452442,3.786,48.36,4.697,0.397,14.03,105.3698,13.02,13.98,27.36,0,110.9,13.12,13.82,10.4
"2016-03-12 20:16:00",1452443,4.184,43.46,13.67,1.311,15.23,105.3723,13.03,14.08,27.94,0,110.9,13.07,13.82,5.5
"2016-03-12 20:16:30",1452444,4.63,48.26,10.41,1.688,16.93,105.3904,13.07,14.21,28.39,0,110.9,13.07,13.87,10.3
"2016-03-12 20:17:00",1452445,2.713,39.49,6.445,0.694,13.81,105.4013,13.1,14.06,28.05,0,110.9,13.07,13.90,1.5
"2016-03-12 20:17:30",1452446,2.685,45.01,5.417,0.283,13.55,105.4036,13.11,14.07,27.89,0,110.9,13.12,13.90,7.0
"2016-03-12 20:18:00",1452447,2.414,57.67,7.13,0.335,13.39,105.4036,13.11,14.1,28.68,0,110.9,13.12,13.90,19.7
"2016-03-12 20:18:30",1452448,2.92,47.11,6.862,0.233,13.42,105.4109,13.12,14.12,28.85,0,110.9,13.12,13.92,9.1
"2016-03-12 20:19:00",1452449,3.62,53.87,7.721,0.454,13.54,105.4165,13.14,14.14,28.76,0,110.9,13.12,13.94,15.9
"2016-03-12 20:19:30",1452450,2.491,53.19,6.708,0.416,13.59,105.4281,13.17,14.17,28.41,0,110.9,13.12,13.97,15.2
"2016-03-12 20:20:00",1452451,2.413,50.5,8.73,0.432,13.69,105.4366,13.19,14.17,28.55,0,110.9,13.12,13.99,12.5
"2016-03-12 20:20:30",1452452,2.527,70.17,3.346,0.437,13.78,105.4376,13.19,14.18,28.48,0,110.9,13.12,13.99,32.2
"2016-03-12 20:21:00",1452453,2.115,67.94,8.13,0.428,13.84,105.4374,13.19,14.19,28.4,0,110.9,13.12,13.99,29.9
"2016-03-12 20:21:30",1452454,2.257,44.6,6.095,0.185,13.91,105.4289,13.17,14.2,29.06,0,110.9,13.12,13.97,6.6
"2016-03-12 20:22:00",1452455,2.004,64.16,4.681,0.326,13.86,105.4129,13.13,14.19,28.81,0,110.9,13.12,13.93,26.2
"2016-03-12 20:22:30",1452456,2.381,83.6,8.33,0.412,13.96,105.4169,13.14,14.18,28.66,0,110.9,13.12,13.94,45.6
"2016-03-12 20:23:00",1452457,1.883,94.1,7.183,0.223,14.11,105.4219,13.15,14.17,28.17,0,110.9,13.12,13.95,56.1
"2016-03-12 20:23:30",1452458,2.624,88.6,4.796,0.78,14.01,105.4307,13.17,14.19,28.39,0,110.9,13.12,13.97,50.6
"2016-03-12 20:24:00",1452459,3.672,71.14,9.53,0.376,14.11,105.4357,13.19,14.19,27.16,0,110.9,13.12,13.99,33.1
"2016-03-12 20:24:30",1452460,2.727,75,11.68,0.715,14.02,105.436,13.19,14.2,26.89,0,110.9,13.12,13.99,37.0
"2016-03-12 20:25:00",1452461,2.87,70.23,20.49,0.516,14.19,105.4377,13.19,14.2,27.58,0,110.9,13.12,13.99,32.2
"2016-03-12 20:25:30",1452462,3.308,52.88,4.145,0.36,14.27,105.438,13.19,14.23,26.32,0,110.9,13.12,13.99,14.9
"2016-03-12 20:26:00",1452463,3.173,47.01,4.98,0.491,14.21,105.4391,13.2,14.21,26.55,0,110.9,13.11,13.99,9.0
"2016-03-12 20:26:30",1452464,2.396,42.91,7.834,0.39,14.33,105.4374,13.19,14.23,26.77,0,110.9,13.11,13.99,4.9
"2016-03-12 20:27:00",1452465,2.367,35.52,6.199,0.362,14.47,105.438,13.19,14.23,26.27,0,110.9,13.11,13.99,357.5
"2016-03-12 20:27:30",1452466,2.767,42.88,7.534,0.448,14.38,105.4376,13.19,14.23,26.42,0,110.9,13.11,13.99,4.9
"2016-03-12 20:28:00",1452467,3.158,52.3,7.447,0.586,14.28,105.4394,13.2,14.23,26.46,0,110.9,13.11,14.00,14.3
"2016-03-12 20:28:30",1452468,2.064,52.62,13.5,0.728,14.32,105.4403,13.2,14.24,26.88,0,110.9,13.11,14.00,14.6
"2016-03-12 20:29:00",1452469,0.393,45.73,40.69,0.318,14.45,105.4385,13.19,14.25,27.24,0,110.9,13.11,13.99,7.7
"2016-03-12 20:29:30",1452470,0.313,126.7,18.75,0.271,14.09,105.4348,13.19,14.26,27.41,0,110.9,13.11,13.98,88.7
"2016-03-12 20:30:00",1452471,0.331,95.8,21.12,0.178,13.95,105.4371,13.19,14.23,27.58,0,110.9,13.12,13.99,57.8
"2016-03-12 20:30:30",1452472,0.441,70.78,13.3,0.164,13.86,105.4385,13.19,14.24,28,0,110.9,13.12,13.99,32.8
"2016-03-12 20:31:00",1452473,0.692,63.61,10.75,0.222,13.66,105.4382,13.19,14.25,28.25,0,110.9,13.12,13.99,25.6
"2016-03-12 20:31:30",1452474,0.943,95.4,8.66,0.191,13.65,105.4469,13.22,14.25,28.25,0,110.9,13.12,14.01,57.4
"2016-03-12 20:32:00",1452475,1.118,86.1,7.597,0.214,13.61,105.4638,13.26,14.28,28.19,0,110.9,13.12,14.06,48.1
"2016-03-12 20:32:30",1452476,1.426,79.78,7.895,0.367,13.73,105.4686,13.27,14.29,28.12,0,110.9,13.12,14.07,41.8
"2016-03-12 20:33:00",1452477,1.867,78.49,8.49,0.204,13.91,105.4711,13.28,14.3,27.67,0,110.9,13.12,14.08,40.5
"2016-03-12 20:33:30",1452478,1.032,73.35,15.9,0.36,13.92,105.472,13.28,14.3,27.46,0,110.9,13.12,14.08,35.3
"2016-03-12 20:34:00",1452479,0.74,47.31,13.52,0.509,13.97,105.4889,13.32,14.32,27.36,0,110.9,13.12,14.12,9.3
"2016-03-12 20:34:30",1452480,1.236,34.03,15.68,0.441,14.13,105.5012,13.36,14.33,27.57,0,110.9,13.12,14.15,356.0
"2016-03-12 20:35:00",1452481,1.651,25.56,12.24,0.431,14.2,105.5049,13.36,14.36,27.21,0,110.9,13.12,14.16,347.6
"2016-03-12 20:35:30",1452482,3.258,37.92,5.067,0.385,14.65,105.5136,13.39,14.38,25.71,0,110.9,13.12,14.19,359.9
"2016-03-12 20:36:00",1452483,3.418,40.91,4.067,0.411,14.69,105.5375,13.45,14.38,25.21,0,110.9,13.12,14.25,2.9
"2016-03-12 20:36:30",1452484,2.293,40.69,6.815,0.421,14.7,105.5387,13.45,14.42,25.5,0,110.9,13.12,14.25,2.7
"2016-03-12 20:37:00",1452485,1.296,31.48,8.2,0.28,14.76,105.5406,13.46,14.45,26.08,0,110.9,13.12,14.26,353.5
"2016-03-12 20:37:30",1452486,1.218,24.75,10.08,0.387,14.89,105.5482,13.48,14.48,26.24,0,110.9,13.12,14.27,346.8
"2016-03-12 20:38:00",1452487,1.054,13.54,12.81,0.524,14.89,105.5708,13.53,14.49,26.15,0,110.9,13.12,14.33,335.5
"2016-03-12 20:38:30",1452488,1.33,1.897,15.21,0.547,14.62,105.5724,13.54,14.51,26.13,0,110.9,13.12,14.34,323.9
"2016-03-12 20:39:00",1452489,1.257,357.5,16.5,0.329,14.45,105.5761,13.55,14.54,26.43,0,110.9,13.12,14.35,319.5
"2016-03-12 20:39:30",1452490,0.665,12.75,17.72,0.262,14.44,105.5975,13.6,14.56,26.49,0,110.9,13.12,14.40,334.8
"2016-03-12 20:40:00",1452491,1.675,0.457,12.3,0.63,14.45,105.6062,13.62,14.59,26.32,0,110.9,13.12,14.42,322.5
"2016-03-12 20:40:30",1452492,3.372,29.07,10.5,0.804,14.66,105.6085,13.63,14.61,25.14,0,110.9,13.12,14.43,351.1
"2016-03-12 20:41:00",1452493,4.104,21.77,10.52,0.481,14.7,105.6324,13.69,14.65,24.14,0,110.9,13.12,14.49,343.8
"2016-03-12 20:41:30",1452494,4.084,25.7,7.521,0.32,14.75,105.64,13.71,14.66,24.37,0,110.9,13.12,14.51,347.7
"2016-03-12 20:42:00",1452495,3.694,25.28,8.37,0.563,14.86,105.64,13.71,14.69,24.12,0,110.9,13.11,14.51,347.3
"2016-03-12 20:42:30",1452496,3.731,30.61,6.535,0.423,14.86,105.6445,13.72,14.71,24.22,0,110.9,13.11,14.52,352.6
"2016-03-12 20:43:00",1452497,3.344,48.13,5.089,0.631,14.85,105.6617,13.77,14.74,24.82,0,110.9,13.11,14.57,10.1
"2016-03-12 20:43:30",1452498,3.698,55.76,5.081,0.594,14.84,105.6709,13.79,14.75,25.36,0,110.9,13.11,14.59,17.8
"2016-03-12 20:44:00",1452499,3.057,65.58,9.64,0.413,14.85,105.6729,13.8,14.77,25.72,0,110.9,13.11,14.60,27.6
"2016-03-12 20:44:30",1452500,2.8,66.46,6.114,0.359,14.83,105.6738,13.8,14.79,25.95,0,110.9,13.11,14.60,28.5
"2016-03-12 20:45:00",1452501,3.317,63.54,5.252,0.299,14.78,105.6738,13.8,14.79,26.07,0,110.9,13.11,14.60,25.5
"2016-03-12 20:45:30",1452502,2.955,52.99,10.49,0.366,14.8,105.6738,13.8,14.79,26.04,0,110.9,13.11,14.60,15.0
"2016-03-12 20:46:00",1452503,1.522,22.65,12.06,0.576,15.08,105.6729,13.8,14.8,26.76,0,110.9,13.11,14.60,344.6
"2016-03-12 20:46:30",1452504,1.519,18.17,8.8,0.57,14.88,105.6735,13.8,14.81,26.96,0,110.9,13.11,14.60,340.2
"2016-03-12 20:47:00",1452505,1.271,4.453,14,0.553,14.89,105.6735,13.8,14.82,26.94,0,110.9,13.11,14.60,326.5
"2016-03-12 20:47:30",1452506,2.313,341.5,2.542,0.394,14.77,105.6738,13.8,14.82,27.04,0,110.9,13.11,14.60,303.5
"2016-03-12 20:48:00",1452507,1.309,350.1,22.94,0.543,14.94,105.6738,13.8,14.83,27.27,0,110.9,13.12,14.60,312.1
"2016-03-12 20:48:30",1452508,0.619,11.15,20.52,0.513,15.09,105.6738,13.8,14.84,27.21,0,110.9,13.12,14.60,333.1
"2016-03-12 20:49:00",1452509,0.678,358.1,16.63,0.433,15.34,105.6738,13.8,14.85,27.43,0,110.9,13.12,14.60,320.1
"2016-03-12 20:49:30",1452510,0.865,355.5,11.63,0.348,15.54,105.6647,13.77,14.84,27.41,0,110.9,13.12,14.57,317.5
"2016-03-12 20:50:00",1452511,1.247,336.8,18.29,0.369,14.97,105.6602,13.76,14.83,27.25,0,110.9,13.12,14.56,298.8
"2016-03-12 20:50:30",1452512,0.615,347.1,11.99,0.199,15.08,105.6529,13.74,14.83,27.31,0,110.9,13.12,14.54,309.1
"2016-03-12 20:51:00",1452513,0.358,329.7,21.01,0.267,14.87,105.6405,13.71,14.81,27.35,0,110.9,13.12,14.51,291.7
"2016-03-12 20:51:30",1452514,0.719,341.8,29.17,0.274,14.43,105.6546,13.75,14.8,26.98,0,110.9,13.12,14.55,303.8
"2016-03-12 20:52:00",1452515,0.761,355.2,13.13,0.185,14.28,105.6718,13.79,14.8,26.22,0,110.9,13.12,14.59,317.2